Mount Airy, NC

4:25 AM EDT on July 22, 2019 (GMT -0400)
Mount Airy-Surry County

Weather History for KMWK - May, 2019

Change the Weather History Date:

Friday, May 24, 2019

  Actual Average (WUND) Record (WUND)
Temperature  
Mean Temperature 78 °F -  
Max Temperature 91 °F - - (-1)
Min Temperature 65 °F - - (-1)
Cooling Degree Days 13    
Growing Degree Days 28 (Base 50)    
Moisture  
Dew Point 67 °F    
Average Humidity 67    
Maximum Humidity 92    
Minimum Humidity 43    
Precipitation  
Precipitation 0.00 in - - ()
Sea Level Pressure  
Sea Level Pressure 30.15 in    
Wind  
Wind Speed 2 mph ()    
Max Wind Speed 9 mph    
Max Gust Speed 16 mph    
Visibility 9.9 miles    
Events      
Averages and records for this station are not official NWS values.
T = Trace of Precipitation, MM = Missing Value Source: Averaged Metar Reports

Daily Weather History Graph

Daily Weather History Graph

Search for Another Location

Airport or City:

Astronomy

May. 24, 2019 Rise Set
Actual Time 6:09 AM EDT 8:29 PM EDT
Civil Twilight 5:39 AM EDT 8:58 PM EDT
Nautical Twilight 5:03 AM EDT 9:34 PM EDT
Astronomical Twilight 4:24 AM EDT 10:14 PM EDT
Moon 12:53 AM EDT (5/24) 11:08 AM EDT (5/24)
Length of Visible Light 15h 18m
Length of Day
14h 19m
Waning Gibbous, 69% of the Moon is Illuminated
May 24
Waning Gibbous
May 26
Last Quarter
Jun 3
New
Jun 10
First Quarter
Jun 17
Full

Hourly Weather History & Observations

Time (EDT) Temp. Heat Index Dew Point Humidity Pressure Visibility Wind Dir Wind Speed Gust Speed Precip Events Conditions
12:00 AM 73.0 °F - 69.8 °F 90% 30.17 in 10.0 mi Calm Calm - N/A   Clear
12:20 AM 72.1 °F - 69.1 °F 90% 30.17 in 10.0 mi Calm Calm - N/A   Clear
12:40 AM 72.7 °F - 69.3 °F 89% 30.16 in 10.0 mi Calm Calm - N/A   Clear
1:00 AM 72.1 °F - 68.7 °F 89% 30.15 in 10.0 mi Calm Calm - N/A   Clear
1:20 AM 72.1 °F - 68.9 °F 89% 30.15 in 10.0 mi Calm Calm - N/A   Clear
1:40 AM 70.9 °F - 68.0 °F 91% 30.15 in 10.0 mi Calm Calm - N/A   Clear
2:00 AM 71.2 °F - 68.4 °F 91% 30.15 in 10.0 mi Calm Calm - N/A   Clear
2:20 AM 71.2 °F - 68.2 °F 90% 30.14 in 10.0 mi Calm Calm - N/A   Clear
2:40 AM 70.7 °F - 67.5 °F 89% 30.14 in 10.0 mi Calm Calm - N/A   Clear
3:00 AM 68.2 °F - 65.7 °F 92% 30.14 in 7.0 mi Calm Calm - N/A   Clear
3:20 AM 68.0 °F - 65.5 °F 92% 30.13 in 10.0 mi Calm Calm - N/A   Clear
3:40 AM 67.5 °F - 64.9 °F 92% 30.13 in 10.0 mi Calm Calm - N/A   Clear
4:00 AM 68.0 °F - 65.3 °F 91% 30.13 in 10.0 mi Calm Calm - N/A   Clear
4:20 AM 66.7 °F - 64.2 °F 92% 30.13 in 10.0 mi Calm Calm - N/A   Clear
4:40 AM 67.5 °F - 64.8 °F 91% 30.13 in 10.0 mi Calm Calm - N/A   Clear
5:00 AM 68.0 °F - 65.3 °F 91% 30.13 in 10.0 mi Calm Calm - N/A   Clear
5:20 AM 67.1 °F - 64.4 °F 91% 30.13 in 10.0 mi Calm Calm - N/A   Clear
5:40 AM 66.7 °F - 63.9 °F 90% 30.13 in 10.0 mi Calm Calm - N/A   Clear
6:00 AM 66.4 °F - 63.7 °F 91% 30.14 in 10.0 mi Calm Calm - N/A   Clear
6:20 AM 65.8 °F - 63.0 °F 90% 30.14 in 10.0 mi Calm Calm - N/A   Clear
6:40 AM 65.5 °F - 62.6 °F 90% 30.14 in 7.0 mi Calm Calm - N/A   Clear
7:00 AM 68.0 °F - 65.1 °F 90% 30.15 in 10.0 mi Calm Calm - N/A   Clear
7:20 AM 70.5 °F - 66.4 °F 87% 30.15 in 10.0 mi Calm Calm - N/A   Clear
7:40 AM 72.0 °F - 67.5 °F 86% 30.16 in 10.0 mi Calm Calm - N/A   Clear
8:00 AM 72.9 °F - 67.6 °F 84% 30.16 in 10.0 mi SSE 3.5 mph - N/A   Clear
8:20 AM 75.9 °F - 67.3 °F 74% 30.16 in 10.0 mi SSW 3.5 mph - N/A   Clear
8:40 AM 77.5 °F - 67.8 °F 72% 30.17 in 10.0 mi SSW 3.5 mph - N/A   Clear
9:00 AM 78.8 °F - 68.5 °F 71% 30.17 in 10.0 mi Calm Calm - N/A   Clear
9:20 AM 79.9 °F - 68.9 °F 69% 30.17 in 10.0 mi Calm Calm - N/A   Clear
9:40 AM 82.6 °F 86.1 °F 69.3 °F 64% 30.17 in 10.0 mi West 3.5 mph - N/A   Clear
10:00 AM 82.8 °F 86.0 °F 68.7 °F 62% 30.17 in 10.0 mi WNW 3.5 mph - N/A   Clear
10:20 AM 84.0 °F 87.3 °F 68.4 °F 59% 30.17 in 10.0 mi WNW 5.8 mph - N/A   Clear
10:40 AM 85.1 °F 88.5 °F 68.5 °F 57% 30.17 in 10.0 mi NW 4.6 mph - N/A   Clear
11:00 AM 86.2 °F 90.0 °F 68.9 °F 56% 30.17 in 10.0 mi NW 3.5 mph - N/A   Clear
11:20 AM 85.8 °F 89.7 °F 68.9 °F 57% 30.17 in 10.0 mi WNW 4.6 mph - N/A   Scattered Clouds
11:40 AM 86.7 °F 90.3 °F 68.4 °F 54% 30.16 in 10.0 mi West 4.6 mph - N/A   Scattered Clouds
12:00 PM 87.6 °F 91.1 °F 67.8 °F 52% 30.17 in 10.0 mi NW 8.1 mph - N/A   Clear
12:20 PM 88.2 °F 91.3 °F 67.6 °F 50% 30.17 in 10.0 mi WNW 9.2 mph - N/A   Clear
12:40 PM 89.1 °F 91.7 °F 66.6 °F 47% 30.16 in 10.0 mi WNW 9.2 mph 16.1 mph N/A   Clear
1:00 PM 90.3 °F 92.6 °F 65.5 °F 44% 30.15 in 10.0 mi WNW 6.9 mph - N/A   Clear
1:20 PM 90.1 °F 92.3 °F 65.3 °F 44% 30.15 in 10.0 mi WNW 8.1 mph - N/A   Clear
1:40 PM 90.3 °F 93.9 °F 67.3 °F 47% 30.14 in 10.0 mi NW 6.9 mph - N/A   Clear
2:00 PM 89.8 °F 92.5 °F 66.4 °F 46% 30.14 in 10.0 mi NNW 5.8 mph - N/A   Clear
2:20 PM 90.5 °F 92.9 °F 66.0 °F 44% 30.13 in 10.0 mi NW 6.9 mph - N/A   Clear
2:40 PM 91.2 °F 93.7 °F 66.0 °F 43% 30.13 in 10.0 mi West 3.5 mph - N/A   Clear
3:00 PM 90.7 °F 93.6 °F 66.4 °F 45% 30.13 in 10.0 mi WNW 5.8 mph 16.1 mph N/A   Clear
3:20 PM 89.1 °F 92.1 °F 66.9 °F 48% 30.13 in 10.0 mi WNW 5.8 mph - N/A   Clear
3:40 PM 91.0 °F 95.2 °F 68.2 °F 47% 30.13 in 10.0 mi NW 5.8 mph - N/A   Clear
4:00 PM 90.5 °F 93.3 °F 66.6 °F 45% 30.13 in 10.0 mi NW 9.2 mph - N/A   Clear
4:20 PM 90.9 °F 94.0 °F 66.7 °F 45% 30.12 in 10.0 mi WNW 6.9 mph - N/A   Clear
4:40 PM 91.2 °F 94.6 °F 67.1 °F 45% 30.12 in 10.0 mi NNW 5.8 mph - N/A   Clear
5:00 PM 90.1 °F 92.3 °F 65.8 °F 44% 30.11 in 10.0 mi WNW 6.9 mph - N/A   Clear
5:20 PM 90.1 °F 93.5 °F 67.3 °F 47% 30.11 in 10.0 mi WNW 5.8 mph - N/A   Clear
5:40 PM 90.3 °F 94.3 °F 68.0 °F 48% 30.11 in 10.0 mi NW 8.1 mph - N/A   Clear
6:00 PM 90.1 °F 92.7 °F 66.0 °F 45% 30.11 in 10.0 mi WNW 4.6 mph - N/A   Clear
6:20 PM 90.0 °F 92.8 °F 66.9 °F 46% 30.11 in 10.0 mi WNW 4.6 mph - N/A   Clear
6:40 PM 89.2 °F 92.4 °F 67.5 °F 48% 30.12 in 10.0 mi WNW 3.5 mph - N/A   Clear
7:00 PM 88.9 °F 92.6 °F 67.8 °F 50% 30.12 in 10.0 mi NW 4.6 mph - N/A   Clear
7:20 PM 87.8 °F 91.4 °F 68.4 °F 52% 30.13 in 10.0 mi NW 3.5 mph - N/A   Clear
7:40 PM 86.4 °F 89.4 °F 67.5 °F 53% 30.14 in 10.0 mi NW 3.5 mph - N/A   Clear
8:00 PM 85.3 °F 88.2 °F 67.5 °F 55% 30.14 in 10.0 mi Calm Calm - N/A   Clear
8:20 PM 85.1 °F 87.9 °F 67.3 °F 55% 30.14 in 10.0 mi Calm Calm - N/A   Clear
8:40 PM 83.5 °F 86.2 °F 67.3 °F 58% 30.14 in 10.0 mi Calm Calm - N/A   Clear
9:00 PM 82.9 °F 85.4 °F 66.9 °F 58% 30.15 in 10.0 mi Calm Calm - N/A   Clear
9:20 PM 81.7 °F 84.2 °F 67.1 °F 61% 30.15 in 10.0 mi Calm Calm - N/A   Clear
9:40 PM 81.0 °F 83.8 °F 68.0 °F 65% 30.15 in 10.0 mi Calm Calm - N/A   Clear
10:00 PM 80.8 °F 83.3 °F 67.6 °F 64% 30.16 in 10.0 mi North 3.5 mph - N/A   Clear
10:20 PM 80.6 °F 83.1 °F 67.3 °F 64% 30.16 in 10.0 mi North 4.6 mph - N/A   Clear
11:00 PM 77.5 °F - 67.6 °F 71% 30.17 in 10.0 mi Calm Calm - N/A   Clear
11:20 PM 75.6 °F - 68.0 °F 77% 30.17 in 10.0 mi SW 3.5 mph - N/A   Clear
11:40 PM 74.8 °F - 68.0 °F 79% 30.16 in 10.0 mi Calm Calm - N/A   Clear